Regional Weather Roundup
Issued by NWS

Home | Current Version | Previous Version | Graphics & Text | Print | Product List | Glossary On
Versions: 1 2 3 4 5 6 7 8 9 10 11 12 13 14 15 16 17 18 19 20 21 22 23 24 25 26 27 28 29 30 31 32 33 34 35 36 37 38 39 40 41 42 43 44 45 46 47 48 49 50
000
ASUS43 KLOT 221509
RWRIL

ILLINOIS REGIONAL WEATHER ROUNDUP
NATIONAL WEATHER SERVICE CHICAGO/ROMEOVILLE IL
1000 AM CDT MON MAY 22 2017

NOTE: "FAIR" INDICATES FEW OR NO CLOUDS BELOW 12,000 FEET WITH NO
SIGNIFICANT WEATHER AND/OR OBSTRUCTIONS TO VISIBILITY.

* THESE STATIONS ARE NOT UNDER NWS QUALITY CONTROL. THEY ALSO MAY NOT
  REPORT WEATHER SUCH AS PRECIPITATION OR FOG.

ILZ001-002-007-009-015-016-024-221600-
NORTHWEST ILLINOIS

CITY           SKY/WX    TMP DP  RH WIND       PRES   REMARKS
MOLINE         MOSUNNY   66  47  50 SW18G25   29.99F
STERLING*      SUNNY     63  49  60 SW9G17    30.01F
SAVANNA*       CLOUDY    59  48  66 SW7       30.00S
$$

ILZ003-004-008-010-011-017-018-221600-
NORTH CENTRAL ILLINOIS

CITY           SKY/WX    TMP DP  RH WIND       PRES   REMARKS
ROCKFORD       MOSUNNY   61  46  57 SW14      30.01F
FREEPORT*      CLOUDY    56  46  68 SW14      30.01S
ROCHELLE*      SUNNY     60  48  65 SW14      30.02F
DE KALB*       SUNNY     59  47  65 SW13G18   30.03S
PERU*          SUNNY     62  45  55 SW15      30.04F
$$

ILZ005-006-012>014-019>023-221600-
NORTHEAST ILLINOIS

CITY           SKY/WX    TMP DP  RH WIND       PRES   REMARKS
CHICAGO-OHARE  SUNNY     60  45  57 W12       30.02F
CHICAGO-MIDWAY MOSUNNY   60  44  55 SW10      30.03F
AURORA         SUNNY     61  45  55 SW12      30.04S
LANSING*       SUNNY     60  46  59 SW12      30.05F
WAUKEGAN       SUNNY     59  44  57 VRB7G17   29.99F
DUPAGE AIRPORT SUNNY     60  47  61 SW14      30.02F
KANKAKEE*      SUNNY     64  45  49 SW3       30.08S
WHEELING       SUNNY     59  45  59 SW12      30.02F
MORRIS*        SUNNY     62  44  52 S9        30.04S
ROMEOVILLE*    SUNNY     61  48  64 W13       30.04F
NORTHERLY ISL    N/A     59  42  53 W6          N/A
$$

LMZ740>746-221600-
SOUTHERN LAKE MICHIGAN

STATION/POSITION SKY/WX   TEMP    WIND        PRES    VSBY  WAVE
                          AIR SEA DIR/SP/G                  HT/PER
                          (F)     (DEG/KT/KT) (MB)    (MI)  (FT/S)
SOUTHERN BUOY              47 44  230/ 12/ 14 1016.1F         2/ 4
WILMETTE HARBOR            55 53                N/A           1/ 2
HARRISON CRIB              57     230/ 12/ 15   N/A
BURNHAM HARBOR             59     220/  9/ 14   N/A
CALUMET HARBOR             59     220/  6/ 10 1016.5F
BURNS HARBOR               57     260/  9/ 11 1018.3R
MICHIGAN CITY              54     230/ 14/ 15   N/A
MICHIGAN CITY 6N           53 52  240/  8/ 10   N/A           2/ 3
ST. JOSEPH                 53 54  240/ 14/ 16 1018.0          3/ 4
$$

ILZ025>027-034>036-040-047-049-050-058-095>099-221600-
WEST-CENTRAL ILLINOIS

CITY           SKY/WX    TMP DP  RH WIND       PRES   REMARKS
QUINCY         SUNNY     67  48  50 SW13      30.06F
GALESBURG*     SUNNY     64  51  62 S20G25    30.02F
MACOMB*        SUNNY     65  50  56 SW18      30.05F
JACKSONVILLE*  SUNNY     66  47  48 S12       30.08F
PITTSFIELD*    SUNNY     67  51  56 S8        30.10S
$$

ILZ028>032-037-038-041>044-048-051>054-059>061-221600-
CENTRAL ILLINOIS

CITY           SKY/WX    TMP DP  RH WIND       PRES   REMARKS
PONTIAC        SUNNY     64  47  53 SW15      30.07S
BLOOMINGTON    SUNNY     63  48  58 SW16      30.08F
DECATUR        SUNNY     64  49  57 SW12      30.10F
PEORIA         SUNNY     65  48  54 SW16      30.05F
LACON*         SUNNY     63  48  57 SW12      30.04S
LINCOLN*       SUNNY     67  50  56 S6        30.08S
SPRINGFIELD    SUNNY     67  52  58 S12       30.09F
TAYLORVILLE    SUNNY     63  51  64 S12       30.11F
$$

ILZ033-039-045-046-055>057-062-063-221600-
EAST-CENTRAL ILLINOIS

CITY           SKY/WX    TMP DP  RH WIND       PRES   REMARKS
CHAMPAIGN      SUNNY     63  48  58 S13       30.10F
RANTOUL*       SUNNY     65  49  56 SW9       30.09F
MATTOON        SUNNY     62  50  64 SW7       30.12F
$$

ILZ079-100>102-221600-
SOUTHWEST ILLINOIS

CITY           SKY/WX    TMP DP  RH WIND       PRES   REMARKS
ALTON          PTSUNNY   64  50  59 S9        30.12F
BELLEVILLE     MOSUNNY   65  51  60 CALM      30.13F
CAHOKIA*       SUNNY     67  48  50 VRB5      30.12F
SPARTA*        CLOUDY    65  48  53 SE5       30.14F
$$

ILZ064>066-069>071-074>076-080>082-084>086-088>090-092>094-221600-
SOUTH-CENTRAL ILLINOIS

CITY           SKY/WX    TMP DP  RH WIND       PRES   REMARKS
CARBONDALE     MOSUNNY   66  48  52 E3        30.14F
CAIRO*         CLOUDY    65  52  61 SE6       30.15F
EFFINGHAM*     CLOUDY    64  51  62 S5        30.15F
MARION         PTSUNNY   66  50  55 SE6       30.16S
MT. VERNON       N/A     67  47  48 VRB3      30.14F
CENTRALIA*     CLOUDY    65  51  60 S3        30.13F
SALEM*         SUNNY     66  48  52 CALM      30.14S
METROPOLIS*    CLOUDY    66  51  60 E5        30.15F
$$

ILZ067-068-072-073-078-083-087-091-221600-
SOUTHEAST ILLINOIS

CITY           SKY/WX    TMP DP  RH WIND       PRES   REMARKS
LAWRENCEVILLE  CLOUDY    65  46  50 VRB5      30.15F
FLORA*         MOSUNNY   66  45  46 CALM      30.15R
FAIRFIELD*     MOSUNNY   66  43  44 CALM      30.13F
HARRISBURG*    MOSUNNY   67  50  55 CALM      30.15S
ROBINSON*      CLOUDY    63  46  52 CALM      30.15F
CARMI*         MOSUNNY   67  47  47 N6        30.14S
$$

ABBREVIATIONS USED IN REMARKS
   TC - TEMPERATURE IN CELSIUS
  WCI - WIND CHILL INDEX
   HX - HEAT INDEX
  VSB - VISIBILITY
$$





USA.gov is the U.S. government's official web portal to all federal, state and local government web resources and services.